Tracking 29892 objects as of 21-Nov-2024
HD Live streaming from Space Station
objects crossing your sky now

STARLINK-3603

Track STARLINK-3603 now!
10-day predictions
STARLINK-3603 is classified as:


NORAD ID: 51816
Int'l Code: 2022-017BA
Perigee: 545.6 km
Apogee: 548.2 km
Inclination: 53.2 °
Period: 95.4 minutes
Semi major axis: 6917 km
RCS: Unknown
Launch date: February 25, 2022
Source: United States (US)
Launch site: AIR FORCE WESTERN TEST RANGE (AFWTR)
Your satellite tracking list
Your tracking list is empty




NASA's NSSDC Master Catalog

Two Line Element Set (TLE):
1 51816U 22017BA  24325.89952571 -.00000055  00000-0  14620-4 0  9993
2 51816  53.2182 296.2871 0001915  92.9794 267.1418 15.08841462152607
Source of the keplerian elements: AFSPC